{"data":{"norad_id":49505,"epoch":"2026-09-20T00:26:00.885984Z","epoch_age_seconds":63651,"freshness":"FRESH","line1":"1 49505U 21114A   26263.01806581 -.00000341  00000+0  00000+0 0  9997","line2":"2 49505   0.0491 311.0639 0001264 306.4793 238.0474  1.00269178 17771","mean_motion":1.00269178,"eccentricity":0.0001264,"inclination_deg":0.0491,"raan_deg":311.0639,"arg_perigee_deg":306.4793,"mean_anomaly_deg":238.0474,"bstar":0,"rev_number":1777,"period_min":1436.1342425685,"perigee_km":35781.996099263,"apogee_km":35792.655528262,"semimajor_km":42165.462813762,"source":"CELESTRAK","updated_at":"2026-09-20T09:00:35.301019Z"}}